NOAA 16 DEB, 41499

Orbit data source: Space-Track

NOAA 16 DEB, 41499 is space debris in SSO originally from a launch on Thu, 21 Sep 2000 UTC launched from the Air Force Western Test Range (AFWTR). Debris objects in space refer to the collection of defunct objects orbiting the Earth. Examples of debris include non-operational satellites, rocket bodies, and fragments generated from explosions, collisions, or faulty payload assembly.

Loading next visibility...
Identifier
41499, 2000-055LX
Orbit
SSO
Country
Flag of USUS
Related business
Manufacturer
Unknown
Mission
Spacecraft
Bus & Motor
Unknown
Mass
Unknown
Launch date (UTC)
2000-09-21 (25 years ago)
Launch vehicle
Unknown
Launch site
Air Force Western Test Range (AFWTR)
Object type
Payload
Rocket body
Debris
Shape & HBR
Unknown shape, 0.1 m
Radar Cross Section
Small (<0.1 m²)

Expand to show TLE details & history
Last TLE update: 1 day ago

TLE from 1 day ago
0 NOAA 16 DEB
1 41499U 00055LX  25352.46969920  .00008594  00000-0  25625-2 0  9997
2 41499  98.6965  75.3860 0025731  71.7084 288.6902 14.43083261506925
Epoch: 2025-12-18T11:16Z
TLE epoch observation values (Epoch: 2025-12-18T11:16:22.010Z)
Latitude
-0.00002°
Longitude
178.96954°
Altitude
745.441 km
Speed
7.485 km/s
True Right ascension
05h 01m 32s
True Declination
0° 00' 00"
Sunlit
Object was in full shadow at epoch
Visualization orbit readout
Latitude
Unknown
Longitude
Unknown
Altitude
Unknown
Speed
Unknown
Apparent Right ascension
Unknown
Apparent Declination
Unknown
Sunlit
N/A
Visualization observer readout
Local Sidereal Time
11:28:53
Azimuth
Unknown
Elevation
Unknown
Doppler factor
Unknown
Orbital elements
Apogee altitude
763.786 km
Perigee altitude
727.127 km
Semi-major axis
7,123.594 km
Eccentricity
0.00257
Inclination
98.6965°
RAAN
75.386°
Arg. of periapsis
71.7084°
True anomaly
288.41061°
Mean anomaly
288.6902°
Eccentric anomaly
288.55043°
Mean motion
3.60989 °/min
Orbital period
99.73 mins
BSTAR
0.0025625
Loading maneuver chart data...
Computing Atmospheric mass density...
Loading historical data...
Loading historical data...
Loading historical data...
Loading historical data...
Loading historical data...
Loading historical data...
Loading historical data...

Documentation

Showing up to 5 results
|